TimeEST,TemperatureF,Dew PointF,Humidity,Sea Level PressureIn,VisibilityMPH,Wind Direction,Wind SpeedMPH,Gust SpeedMPH,PrecipitationIn,Events,Conditions,WindDirDegrees,DateUTC
12:53 AM,48.9,42.1,77,30.14,10.0,NNE,3.5,-,N/A,,Clear,20,2011-12-29 05:53:00
1:53 AM,50.0,43.0,77,30.14,10.0,Calm,Calm,-,N/A,,Clear,0,2011-12-29 06:53:00
2:53 AM,48.0,43.0,83,30.14,10.0,NE,4.6,-,N/A,,Clear,40,2011-12-29 07:53:00
3:53 AM,48.0,42.1,80,30.12,10.0,Calm,Calm,-,N/A,,Clear,0,2011-12-29 08:53:00
4:53 AM,46.9,42.1,83,30.12,10.0,Calm,Calm,-,N/A,,Clear,0,2011-12-29 09:53:00
5:53 AM,48.9,44.1,83,30.12,10.0,Calm,Calm,-,N/A,,Overcast,0,2011-12-29 10:53:00
6:53 AM,48.0,43.0,83,30.13,10.0,Calm,Calm,-,N/A,,Scattered Clouds,0,2011-12-29 11:53:00
7:11 AM,48.2,42.8,82,30.13,10.0,Calm,Calm,-,N/A,,Mostly Cloudy,0,2011-12-29 12:11:00
7:22 AM,48.2,42.8,82,30.13,10.0,Calm,Calm,-,N/A,,Mostly Cloudy,0,2011-12-29 12:22:00
7:53 AM,48.9,44.1,83,30.14,10.0,Calm,Calm,-,N/A,,Clear,0,2011-12-29 12:53:00
8:53 AM,54.0,44.1,69,30.16,10.0,ENE,3.5,-,N/A,,Partly Cloudy,60,2011-12-29 13:53:00
10:53 AM,60.1,45.0,57,30.19,10.0,North,8.1,-,N/A,,Overcast,350,2011-12-29 15:53:00
11:53 AM,62.1,43.0,50,30.17,10.0,North,8.1,-,N/A,,Scattered Clouds,350,2011-12-29 16:53:00
12:53 PM,64.0,39.9,41,30.12,10.0,Variable,4.6,-,N/A,,Clear,0,2011-12-29 17:53:00
1:53 PM,64.9,41.0,42,30.10,10.0,South,3.5,-,N/A,,Clear,180,2011-12-29 18:53:00
2:53 PM,66.0,39.9,38,30.08,10.0,Calm,Calm,-,N/A,,Clear,0,2011-12-29 19:53:00
3:53 PM,68.0,39.0,35,30.09,10.0,North,3.5,-,N/A,,Clear,10,2011-12-29 20:53:00
4:53 PM,66.0,39.9,38,30.09,10.0,ENE,3.5,-,N/A,,Clear,60,2011-12-29 21:53:00
5:53 PM,63.0,42.1,46,30.09,10.0,Calm,Calm,-,N/A,,Clear,0,2011-12-29 22:53:00
6:53 PM,60.1,45.0,57,30.11,10.0,Calm,Calm,-,N/A,,Clear,0,2011-12-29 23:53:00
7:53 PM,57.0,46.0,67,30.12,10.0,Calm,Calm,-,N/A,,Clear,0,2011-12-30 00:53:00
8:53 PM,55.9,46.0,69,30.13,10.0,Calm,Calm,-,N/A,,Clear,0,2011-12-30 01:53:00
9:53 PM,55.0,46.9,74,30.14,10.0,Calm,Calm,-,N/A,,Clear,0,2011-12-30 02:53:00
10:53 PM,54.0,46.9,77,30.14,10.0,Calm,Calm,-,N/A,,Clear,0,2011-12-30 03:53:00
11:53 PM,52.0,46.9,83,30.12,10.0,Calm,Calm,-,N/A,,Clear,0,2011-12-30 04:53:00